Total_Precipitation_Accumulation
0.25 0.29 0.38 0.52 0.45 0.31 0.18 0.07 0.04 0.06 0.07 0.06 0.05 0.06 0.08 0.12 0.19 0.31 0.29 0.25 0.21 0.27 0.45 0.70 0.86 0.93 0.98 0.88 0.71 0.59 0.60 0.66 0.74 0.79 0.80 0.86 0.82 0.73 0.73 0.73 0.82 0.91 1.03 0.98 0.90 0.77 0.59 0.50 0.42
0.25 0.38 0.59 0.68 0.46 0.26 0.12 0.07 0.06 0.07 0.08 0.09 0.08 0.09 0.11 0.16 0.18 0.21 0.30 0.36 0.32 0.36 0.55 0.70 0.91 0.94 0.97 0.91 0.77 0.68 0.64 0.69 0.76 0.81 0.87 0.93 0.89 0.82 0.85 0.83 0.85 0.89 0.94 0.87 0.77 0.72 0.55 0.41 0.34
0.33 0.53 0.81 0.71 0.43 0.25 0.12 0.07 0.07 0.07 0.08 0.11 0.14 0.16 0.20 0.26 0.23 0.28 0.36 0.45 0.51 0.54 0.68 0.88 1.01 1.01 1.01 0.95 0.89 0.83 0.78 0.80 0.85 0.88 0.96 0.98 1.00 0.96 1.00 0.93 0.87 0.83 0.75 0.68 0.62 0.56 0.48 0.38 0.35
0.50 0.83 0.94 0.70 0.37 0.17 0.12 0.09 0.08 0.10 0.10 0.12 0.19 0.29 0.35 0.32 0.29 0.35 0.44 0.51 0.64 0.73 0.85 1.09 1.26 1.22 1.15 1.06 1.00 0.99 0.95 0.92 0.93 0.94 1.02 1.07 1.11 1.10 1.06 0.91 0.77 0.70 0.64 0.64 0.61 0.50 0.41 0.36 0.34
0.79 1.07 0.94 0.61 0.31 0.15 0.10 0.10 0.11 0.13 0.13 0.14 0.22 0.38 0.51 0.45 0.43 0.52 0.57 0.63 0.77 0.86 1.03 1.29 1.48 1.49 1.34 1.22 1.16 1.17 1.16 1.16 1.11 1.07 1.12 1.19 1.19 1.14 1.05 0.85 0.67 0.59 0.60 0.61 0.62 0.58 0.48 0.42 0.36
1.13 1.12 0.88 0.55 0.26 0.16 0.11 0.12 0.14 0.16 0.17 0.20 0.28 0.45 0.64 0.67 0.71 0.81 0.83 0.82 0.96 1.03 1.21 1.46 1.66 1.60 1.51 1.47 1.41 1.41 1.42 1.37 1.30 1.26 1.35 1.34 1.27 1.16 1.01 0.87 0.72 0.61 0.59 0.60 0.60 0.61 0.55 0.47 0.42
1.18 0.99 0.69 0.43 0.25 0.20 0.15 0.13 0.17 0.19 0.22 0.25 0.29 0.55 0.78 0.97 1.09 1.17 1.23 1.23 1.25 1.33 1.50 1.67 1.74 1.65 1.55 1.50 1.51 1.52 1.58 1.61 1.50 1.40 1.40 1.36 1.26 1.13 1.02 0.83 0.78 0.70 0.66 0.62 0.59 0.55 0.57 0.53 0.46
1.18 1.13 0.68 0.41 0.30 0.24 0.20 0.20 0.18 0.22 0.27 0.30 0.38 0.64 0.88 1.09 1.37 1.63 1.66 1.81 1.79 1.81 1.87 1.93 2.00 1.90 1.71 1.54 1.59 1.59 1.59 1.57 1.57 1.46 1.27 1.19 1.08 0.99 0.96 0.75 0.72 0.72 0.69 0.62 0.57 0.53 0.55 0.50 0.41
1.26 1.30 0.76 0.41 0.34 0.28 0.27 0.30 0.25 0.22 0.32 0.43 0.47 0.62 0.91 1.27 1.68 2.15 2.21 2.32 2.36 2.30 2.32 2.24 2.26 2.19 2.10 1.90 1.75 1.77 1.65 1.56 1.54 1.45 1.22 1.14 1.17 1.03 0.82 0.61 0.59 0.62 0.63 0.62 0.60 0.53 0.49 0.41 0.34
1.38 1.14 0.59 0.33 0.32 0.34 0.35 0.39 0.37 0.35 0.41 0.52 0.66 0.72 1.12 1.65 2.04 2.32 2.42 2.34 2.51 2.48 2.52 2.48 2.45 2.41 2.40 2.11 1.93 1.95 1.79 1.61 1.47 1.33 1.29 1.21 1.18 1.12 0.86 0.71 0.59 0.62 0.60 0.61 0.68 0.66 0.52 0.39 0.32
1.11 0.76 0.49 0.39 0.37 0.41 0.45 0.47 0.48 0.51 0.52 0.54 0.63 0.76 1.16 1.74 2.28 2.42 2.61 2.58 2.62 2.80 2.78 2.69 2.64 2.62 2.61 2.48 2.10 1.98 1.82 1.73 1.63 1.42 1.37 1.32 1.32 1.27 1.10 0.95 0.83 0.77 0.65 0.64 0.68 0.69 0.53 0.42 0.39
0.92 0.60 0.56 0.55 0.49 0.55 0.57 0.56 0.54 0.55 0.55 0.53 0.64 0.77 1.11 1.57 2.06 2.45 2.65 2.77 2.63 2.87 2.99 2.88 2.79 2.72 2.71 2.66 2.40 2.12 1.90 1.72 1.62 1.47 1.37 1.41 1.39 1.29 1.16 0.99 0.91 0.85 0.72 0.68 0.67 0.64 0.54 0.44 0.40
0.81 0.62 0.61 0.63 0.62 0.67 0.71 0.65 0.62 0.58 0.55 0.62 0.85 1.06 1.23 1.49 1.81 2.34 2.70 2.79 2.72 2.73 3.03 3.08 3.00 2.85 2.70 2.69 2.61 2.30 2.01 1.74 1.66 1.65 1.51 1.37 1.33 1.23 1.20 1.06 1.02 0.93 0.80 0.75 0.71 0.66 0.62 0.54 0.48
0.69 0.64 0.69 0.75 0.78 0.78 0.88 0.76 0.73 0.69 0.66 0.84 1.05 1.18 1.38 1.59 1.80 2.22 2.58 2.78 2.68 2.59 2.88 3.10 3.23 3.14 2.90 2.65 2.54 2.42 2.21 2.01 1.92 1.81 1.68 1.57 1.45 1.36 1.24 1.12 1.07 1.01 0.86 0.76 0.76 0.71 0.67 0.60 0.54
0.79 0.85 0.88 0.89 0.86 0.84 0.97 0.98 0.76 0.73 0.82 0.92 1.04 1.21 1.40 1.65 1.97 2.28 2.44 2.66 2.83 2.70 2.83 3.03 3.26 3.42 3.27 2.99 2.76 2.61 2.43 2.24 2.10 2.00 1.97 1.86 1.67 1.51 1.44 1.24 1.10 1.06 1.04 0.99 0.93 0.89 0.76 0.64 0.57
1.24 1.21 1.09 0.90 0.84 0.84 1.11 1.13 0.77 0.72 0.86 0.93 1.04 1.22 1.38 1.57 1.89 2.21 2.45 2.67 2.99 3.04 3.04 3.19 3.21 3.40 3.48 3.35 3.07 2.79 2.63 2.45 2.21 2.00 1.99 1.99 1.87 1.72 1.62 1.50 1.31 1.22 1.23 1.20 1.09 0.96 0.89 0.74 0.62
1.40 1.16 0.88 0.79 0.79 0.88 1.05 1.01 0.86 0.79 0.81 0.92 1.04 1.19 1.38 1.48 1.67 1.96 2.29 2.65 2.99 3.16 3.28 3.46 3.44 3.32 3.44 3.56 3.43 3.05 2.79 2.60 2.42 2.16 2.01 2.02 2.02 1.91 1.73 1.55 1.48 1.48 1.41 1.30 1.21 1.05 1.02 0.95 0.78
0.90 0.72 0.62 0.64 0.67 0.76 0.87 0.84 0.88 0.92 0.87 0.85 0.96 1.10 1.30 1.36 1.43 1.65 2.01 2.52 2.95 3.20 3.26 3.39 3.53 3.59 3.63 3.73 3.80 3.55 3.17 2.86 2.66 2.47 2.25 2.14 2.19 2.22 2.06 1.76 1.62 1.62 1.60 1.51 1.41 1.31 1.19 1.10 1.04
0.71 0.65 0.56 0.46 0.49 0.68 0.75 0.81 0.92 1.00 0.89 0.85 0.95 1.04 1.15 1.21 1.30 1.46 1.75 2.17 2.60 3.07 3.15 3.14 3.25 3.45 3.59 3.69 3.68 3.54 3.20 3.02 2.85 2.62 2.48 2.40 2.30 2.31 2.38 2.16 1.94 1.86 1.80 1.75 1.70 1.69 1.57 1.34 1.27
0.80 0.75 0.63 0.55 0.55 0.75 0.79 0.87 0.87 0.93 0.94 0.88 0.89 0.94 0.98 1.12 1.28 1.41 1.63 1.92 2.18 2.63 2.96 2.99 3.07 3.15 3.22 3.27 3.47 3.58 3.45 3.14 3.00 2.90 2.71 2.51 2.41 2.34 2.39 2.46 2.30 2.04 1.96 1.96 1.93 1.84 1.71 1.58 1.47
0.83 0.66 0.62 0.74 0.79 0.89 0.91 1.00 0.90 0.89 0.90 0.83 0.80 0.86 0.86 0.98 1.22 1.35 1.50 1.81 2.01 2.35 2.73 2.88 3.00 3.13 3.08 3.22 3.64 3.86 3.86 3.53 3.22 3.00 2.90 2.74 2.54 2.47 2.38 2.33 2.37 2.29 2.14 2.06 2.08 2.10 2.05 1.90 1.75
0.90 0.52 0.58 0.80 1.13 1.26 1.01 1.24 1.00 0.94 0.88 0.82 0.79 0.84 0.85 0.91 1.10 1.21 1.31 1.62 1.87 2.07 2.36 2.58 2.90 3.15 3.25 3.30 3.49 3.54 3.35 3.16 2.87 2.78 2.76 2.78 2.74 2.54 2.45 2.43 2.40 2.36 2.27 2.15 2.16 2.24 2.25 2.24 2.11
0.79 0.59 0.70 0.90 1.22 1.31 0.89 1.08 1.00 0.91 0.92 0.90 0.86 0.93 0.94 0.92 1.04 1.21 1.29 1.42 1.58 1.88 2.12 2.24 2.47 2.78 3.05 3.18 3.33 3.46 3.28 3.00 2.87 2.83 2.81 2.75 2.75 2.66 2.53 2.45 2.46 2.45 2.36 2.28 2.26 2.29 2.30 2.30 2.25
0.84 1.02 1.09 1.15 1.62 1.70 0.85 0.91 0.96 0.95 0.94 0.87 0.84 0.90 0.92 0.94 1.04 1.16 1.21 1.32 1.42 1.66 1.95 2.04 2.19 2.41 2.72 2.94 3.13 3.33 3.22 2.95 2.68 2.62 2.66 2.61 2.60 2.53 2.44 2.44 2.39 2.38 2.33 2.22 2.17 2.21 2.24 2.24 2.16
1.28 1.80 2.23 2.19 2.07 1.36 0.67 0.84 1.05 0.90 0.82 0.84 0.89 0.88 0.89 0.90 0.96 1.06 1.14 1.32 1.40 1.55 1.68 1.74 1.79 1.94 2.25 2.54 2.71 2.93 3.04 2.98 2.74 2.47 2.42 2.39 2.33 2.26 2.20 2.23 2.26 2.28 2.25 2.22 2.15 2.11 2.05 2.10 2.13
1.27 1.50 1.80 1.62 1.12 0.78 0.67 0.90 0.99 0.79 0.79 0.82 0.86 0.85 0.82 0.86 0.93 0.97 1.05 1.20 1.34 1.47 1.46 1.44 1.48 1.61 1.76 1.95 2.16 2.34 2.44 2.61 2.66 2.51 2.32 2.24 2.14 2.07 2.07 2.10 2.14 2.20 2.25 2.23 2.21 2.13 2.02 1.99 1.97
1.21 1.24 1.06 1.32 0.93 0.81 0.82 0.83 0.84 0.70 0.74 0.75 0.76 0.79 0.82 0.84 0.85 0.93 1.06 1.14 1.20 1.29 1.31 1.28 1.31 1.40 1.46 1.63 1.79 2.00 2.05 2.08 2.20 2.25 2.25 2.21 2.06 1.97 1.99 2.09 2.10 2.06 2.05 2.04 2.08 2.08 1.95 1.85 1.81
1.02 1.05 1.26 1.74 1.49 1.09 0.78 0.75 0.97 0.82 0.79 0.82 0.78 0.81 0.86 0.85 0.85 0.96 1.10 1.18 1.19 1.22 1.23 1.17 1.19 1.24 1.32 1.44 1.60 1.76 1.85 1.92 1.95 1.95 1.95 2.00 1.96 1.84 1.81 1.86 1.94 1.95 1.94 1.94 1.95 1.88 1.79 1.72 1.60
0.96 1.14 1.32 1.38 1.20 1.16 0.92 0.95 0.96 0.82 0.76 0.78 0.75 0.78 0.81 0.81 0.85 0.98 1.10 1.22 1.22 1.15 1.13 1.11 1.08 1.11 1.18 1.27 1.38 1.50 1.59 1.69 1.79 1.78 1.73 1.74 1.76 1.71 1.66 1.69 1.69 1.67 1.66 1.70 1.77 1.73 1.68 1.65 1.58
0.80 0.89 1.10 1.49 1.13 0.90 0.94 1.01 0.84 0.72 0.67 0.70 0.72 0.72 0.73 0.74 0.80 0.90 0.99 1.03 1.06 1.08 1.11 1.13 1.08 1.09 1.08 1.17 1.27 1.33 1.39 1.47 1.58 1.61 1.61 1.59 1.60 1.61 1.58 1.60 1.63 1.58 1.53 1.51 1.54 1.55 1.55 1.58 1.57